Location: Poughquag
(41.6090°N, 73.6820°W)
Time: 09:23:47
(UTC-04:00)

Courier 1B - Visible Passes

Search period start: 14 October 2019 00:00
Search period end: 24 October 2019 00:00
Orbit: 962 x 1209 km, 28.3° (Epoch: 14 October)

Date Brightness Start Highest point End Pass type
(mag) Time Alt. Az. Time Alt. Az. Time Alt. Az.
14 Oct 9.9 19:03:25 10° SSE 19:03:42 10° SSE 19:03:59 10° SSE visible
14 Oct 9.4 20:51:14 10° SSW 20:54:54 20° S 20:54:54 20° S visible
15 Oct 9.2 19:57:59 10° SSW 20:03:11 19° SSE 20:04:35 19° SSE visible
15 Oct 9.9 21:50:14 10° SW 21:51:29 14° SW 21:51:29 14° SW visible
16 Oct 9.6 19:05:02 10° SSW 19:09:32 16° SSE 19:13:58 10° ESE visible
16 Oct 9.2 20:56:34 10° SW 21:01:07 25° SSW 21:01:07 25° SSW visible
17 Oct 9.0 20:03:02 10° SW 20:09:06 25° SSE 20:10:43 23° SSE visible
17 Oct 9.9 21:56:07 10° WSW 21:57:37 15° SW 21:57:37 15° SW visible
18 Oct 9.3 19:09:39 10° SSW 19:15:25 23° SSE 19:20:18 12° ESE visible
18 Oct 9.1 21:02:18 10° SW 21:07:12 27° SSW 21:07:12 27° SSW visible
19 Oct 8.9 20:08:34 10° SW 20:15:04 29° S 20:16:45 27° SSE visible
19 Oct 10.0 22:02:16 10° WSW 22:03:38 15° WSW 22:03:38 15° WSW visible
20 Oct 9.2 19:14:58 10° SW 19:21:21 27° S 19:26:18 15° ESE visible
20 Oct 9.2 21:08:18 10° WSW 21:13:11 27° SSW 21:13:11 27° SSW visible
21 Oct 9.4 18:21:32 10° SW 18:27:37 25° SSE 18:33:42 10° ESE visible
21 Oct 8.9 20:14:27 10° WSW 20:21:03 30° S 20:22:43 28° SSE visible
21 Oct 10.1 22:08:42 10° WSW 22:09:37 13° WSW 22:09:37 13° WSW visible
22 Oct 9.1 19:20:42 10° SW 19:27:19 30° S 19:32:16 16° SE visible
22 Oct 9.4 21:14:34 10° WSW 21:19:09 24° SSW 21:19:09 24° SSW visible
23 Oct 9.2 18:27:05 10° SW 18:33:34 29° S 18:40:04 10° ESE visible
23 Oct 9.1 20:20:35 10° WSW 20:27:01 28° S 20:28:43 26° SSE visible
